Regional Weather Roundup
Issued by NWS Sterling, VA

Home | Current Version | Previous Version | Text Only | Print | Product List | Glossary Off
Versions: 1 2 3 4 5 6 7 8 9 10 11 12 13 14 15 16 17 18 19 20 21 22 23 24 25 26 27 28 29 30 31 32 33 34 35 36 37 38 39 40 41 42 43 44 45 46 47 48 49 50

000
ASUS41 KLWX 072110
RWRLWX

REGIONAL WEATHER ROUNDUP
NATIONAL WEATHER SERVICE BALTIMORE MD/WASHINGTON DC
400 PM EST SUN FEB 07 2016

Note: "FAIR" indicates few or no clouds below 12,000 feet
with no significant weather and/or obstructions to visibility.
 TC=TEMPERATURE CELSIUS

 * =Non NWS site. Station does not report precipitation (e.g. rain,
    snow, etc.), thunder, or fog.

DCZ001-MDZ009-015-VAZ040>042-051-053>054-072200-
WASHINGTON METRO

CITY           SKY/WX    TMP DP  RH WIND       PRES   REMARKS
WASHINGTON NAT CLOUDY    45  22  40 NE10      30.02S
DULLES         PTSUNNY   44  22  41 N7        30.00F
ANDREWS AFB    CLOUDY    43  20  41 NE9       29.98F
FT BELVOIR     FAIR      45  18  33 VRB3      30.00S
QUANTICO       CLOUDY    45  24  43 NE12      30.01F
COLLEGE PARK*  FAIR      45  18  33 NE3       30.02R
LEESBURG*      FAIR      45  27  49 NE7       30.00F
MANASSAS*      SUNNY     45  21  39 N9        30.00F
GAITHERSBURG*  CLOUDY    45  19  36 NE3       30.03S

$$

MDZ006>007-011-014-072200-
BALTIMORE METRO

CITY           SKY/WX    TMP DP  RH WIND       PRES   REMARKS
BWI AIRPORT    CLOUDY    44  18  35 NE9       30.01F
MD SCIENCE CTR   N/A     45  19  35 MISG      30.02S
MARTIN STATE   CLOUDY    45  25  45 N8        30.04F
ANNAPOLIS      CLOUDY    42  25  50 N8        30.01S
FORT MEADE*    CLOUDY    43  19  39 NE6       30.04R

$$

MDZ012-015-019>023-072200-
MARYLAND EASTERN SHORE

CITY           SKY/WX    TMP DP  RH WIND       PRES   REMARKS
OCEAN CITY     CLOUDY    41  31  67 NE14G24   29.97F
SALISBURY      CLOUDY    42  24  49 NE12      29.97F
BAY BRIDGE AP*   N/A     39  30  70 CALM      30.02R
CAMBRIDGE*     CLOUDY    43  27  52 N7        29.98F
EASTON*        CLOUDY    43  28  56 N10       30.04S

$$

MDZ017>025-072200-
SOUTHERN MARYLAND

CITY           SKY/WX    TMP DP  RH WIND       PRES   REMARKS
PATUXENT RIVER CLOUDY    40  29  64 N10       29.98F
ST INIGOES     CLOUDY    41  29  62 VRB6      29.97F
LEONARDTOWN*   CLOUDY    41  27  56 N6        29.99F

$$

MDZ003>005-072200-
NORTH CENTRAL MARYLAND

CITY           SKY/WX    TMP DP  RH WIND       PRES   REMARKS
FREDERICK*     SUNNY     45  27  49 VRB5      30.03F
HAGERSTOWN APT MOSUNNY   43  21  41 NW6       29.98F
WESTMINSTER*   CLOUDY    43  30  61 N6        29.98F

$$

MDZ501>502-072200-
WESTERN MARYLAND

CITY           SKY/WX    TMP DP  RH WIND       PRES   REMARKS
OAKLAND*       CLOUDY    37  21  52 NW5       29.92F
CUMBERLAND*    CLOUDY    48  25  40 CALM      30.00F

$$

VAZ025>031-072200-
SHENANDOAH VALLEY

CITY           SKY/WX    TMP DP  RH WIND       PRES   REMARKS
WINCHESTER*    FAIR      45  25  45 E3        29.98F
FRONT ROYAL*   FAIR      43  25  49 E3        29.96F
LURAY*         FAIR      43  23  45 CALM      29.96F
NEW MARKET*    FAIR      44  25  47 N6        29.95F
STAUNTON*      FAIR      46  27  48 CALM      29.96F
WAYNESBORO*    FAIR      41  23  49 N3        29.94F

$$

WVZ021-048>050-054>055-072200-
EASTERN WEST VIRGINIA PANHANDLE

CITY           SKY/WX    TMP DP  RH WIND       PRES   REMARKS
MARTINSBURG    FAIR      45  22  40 E6        29.99F
PETERSBURG*    FAIR      48  25  41 CALM      29.96F

$$

VAZ036>039-050-072200-
CENTRAL FOOTHILLS

CITY           SKY/WX    TMP DP  RH WIND       PRES   REMARKS
CHARLOTTESVILL FAIR      46  24  42 NE6       29.96F
CULPEPER*      FAIR      44  24  45 NE7       30.00F
ORANGE*        FAIR      45  27  49 N7        30.00F
GORDONSVILLE*  FAIR      45  24  44 NE9       29.97F
WARRENTON*     FAIR      46  26  47 NE6       29.99F

$$

VAZ055>057-072200-
NORTH AND CENTRAL PIEDMONT

CITY           SKY/WX    TMP DP  RH WIND       PRES   REMARKS
FREDERICKSBRG* FAIR      44  22  40 NE7       29.99S
STAFFORD*      FAIR      45  19  35 NE5       30.03F

$$

NCZ024-NYZ072-PAZ021-071-VAZ022-071-072200-
OTHER REGIONAL OBSERVATIONS

CITY           SKY/WX    TMP DP  RH WIND       PRES   REMARKS
NEW YORK CITY  CLOUDY    45  20  36 E7        30.06F
PHILADELPHIA   CLOUDY    45  23  42 E8        30.03R
PITTSBURGH     MOSUNNY   50  19  29 SW8       29.92F
ROANOKE        CLOUDY    47  24  40 NE7       29.95F
RICHMOND       CLOUDY    42  23  46 N13       29.97S
RALEIGH        CLOUDY    44  20  38 N9G20     29.92F

$$

ANZ530>537-072200-
MARINE OBSERVATIONS

STATION/POSITION TIME  TEMP    WIND        PRES
                       AIR SEA DIR/SP/G
                 (UTC) (F)     (DEG/KT/KT) (MB)
THOMAS PT LIGHT  2000   39 39   10/ 11/ 12 1016.8F
BALT KEY BRIDGE  2000   41     360/  1/  2 1016.7F
COVE POINT       2000   37     360/ 14/ 17 1016.8F
LEWISETTA        2000   42 42   30/  8/ 11 1015.2S
SOLOMONS ISLAND  2000   40 41  360/ 10/ 11   N/A

$$




USA.gov is the U.S. government's official web portal to all federal, state and local government web resources and services.